Location: Bédeille
(43.0872°N, 1.1041°E)
Time: 01:43:48
(UTC+00:00)

Lacrosse 5 - Pass Details

Date: 03 February 2023
Orbit: 714 x 724 km, 57.0° (Epoch: 09 March)

Event Time Altitude Azimuth Distance (km) Brightness Sun altitude
Rises 18:24:24 0° 236° (SW) 3,124 6.4 -13.8°
Reaches altitude 10° 18:26:48 10° 240° (WSW) 2,207 5.5 -14.3°
Maximum altitude 18:31:51 62° 321° (NW) 815 2.3 -15.2°
Enters shadow 18:35:50 16° 39° (NE) 1,818 3.5 -15.9°
